Погода в Ак-Довураке

Россия / Республика Тыва     51°11′27″N   90°36′03″E
темп.,
°C
ветер,
м/с
пор.,
м/с
влажн.,
%
обл.,
%
осадки,
мм/ч
давл.,
гПа
погр.,
м
14 апреля, ср
ср1401:000с59380 0.2 1027543
04:00−2с3347100 0.0 102988
07:00−3ссз225029 0.0 103293
10:00+1зсз262482 0.0 10312257
13:00+5з361823 0.0 10272629
16:00+7зсз57199 0.0 10242327
19:00+6зсз5625100 0.0 10231597
22:00+4зсз3435100 0.0 1024142
15 апреля, чт
чт1501:00+2зсз344414 0.0 102491
04:000зсз33565 0.0 102446
07:000сз33575 0.0 102568
10:00+7з25335 0.0 10231243
13:00+11з352511 0.0 10202284
16:00+13з242148 0.0 10182462
19:00+12сз23266 0.0 1019373
22:00+6всв00437 0.0 102111
16 апреля, пт
пт1601:00+4ссз115550 0.0 102210
04:00+2с11615 0.0 102210
07:00+3с11580 0.0 102210
10:00+7юв11430 0.0 1020651
13:00+11юв22310 0.0 10161055
16:00+14ююв23220 0.0 10131251
19:00+14з57210 0.0 1012911
22:00+9сз22320 0.0 101316
17 апреля, сб
сб1701:00+7сз22430 0.0 101313
04:00+5ссз11480 0.0 101211
07:00+5сз114791 0.0 101212
10:00+10ююв1132100 0.0 1010491
13:00+14ю2518100 0.0 10061986
16:00+15зюз7919100 0.0 10053104
19:00+13сз4427100 0.0 1005992
22:00+10ссв3339100 0.0 1006211
18 апреля, вс
вс1801:00+5юз1172100 1.1 1010238
04:00+4ююз118522 0.5 101020
07:00+4сз00785 0.5 101035
10:00+10юз383647 0.0 10081645
13:00+13з7122287 0.0 10063448
16:00+13зюз71322100 0.0 10053411
19:00+11зюз414305 0.0 10062491
22:00+8сз324253 0.0 100829